Location: Béaulencourt
(50.0796°N, 2.8795°E)
Time: 00:37:34
(UTC+00:00)

Cosmos 1140 Rocket - Pass Details

Date: 20 January 2026
Orbit: 739 x 763 km, 74.1° (Epoch: 17 February)

Event Time Altitude Azimuth Distance (km) Brightness Sun altitude
Exits shadow 06:29:58 - 250° (WSW) 2,538 5.7 -10.6°
Reaches altitude 10° 06:30:52 10° 256° (WSW) 2,255 5.4 -10.4°
Maximum altitude 06:35:00 24° 310° (NW) 1,509 4.5 -9.8°
Drops below altitude 10° 06:39:10 10° 4° (N) 2,277 5.8 -9.2°
Sets 06:41:59 0° 19° (NNE) 3,210 6.7 -8.8°
